SUD014 ZULS-ZGGG

Flight info

Callsign SUD014
Flight time 3h 12m
Altitude 35100
Route LXA W500 DM W9 CZH B213 CTU W237 IDBOR B330 KWE W181 DUDIT A599 GYA GYA8
Aircraft A320/M-SDFGHILORVWY/S

Departure

Time 2026-04-26 11:57
Airport Lhasa Gonggar International Airport (ZULS)

Arrival

Time 2026-04-26 15:09
Airport Guangzhou Baiyun International Airport (ZGGG)
Time Latitude Longitude Altitude Speed Heading
2026-04-26 11:37 29.29437 90.89867 11477 ft 0 kts 173°
2026-04-26 11:47 29.29451 90.89865 11466 ft 4 kts 176°
2026-04-26 11:47 29.29478 90.89864 11476 ft 4 kts 184°
2026-04-26 11:47 29.29504 90.89869 11481 ft 4 kts 197°
2026-04-26 11:48 29.29521 90.89876 11475 ft 0 kts 208°
2026-04-26 11:50 29.29521 90.89875 11475 ft 0 kts 213°
2026-04-26 11:50 29.29520 90.89874 11475 ft 0 kts 222°
2026-04-26 11:51 29.29518 90.89865 11480 ft 3 kts 250°
2026-04-26 11:51 29.29515 90.89832 11484 ft 5 kts 272°
2026-04-26 11:51 29.29517 90.89791 11490 ft 5 kts 274°
2026-04-26 11:51 29.29520 90.89745 11485 ft 6 kts 274°
2026-04-26 11:52 29.29520 90.89692 11483 ft 7 kts 268°
2026-04-26 11:52 29.29519 90.89653 11494 ft 8 kts 268°
2026-04-26 11:52 29.29517 90.89567 11492 ft 9 kts 268°
2026-04-26 11:52 29.29516 90.89495 11490 ft 9 kts 269°
2026-04-26 11:53 29.29516 90.89419 11494 ft 10 kts 269°
2026-04-26 11:53 29.29514 90.89339 11487 ft 10 kts 268°
2026-04-26 11:53 29.29514 90.89255 11484 ft 11 kts 270°
2026-04-26 11:54 29.29614 90.89204 11482 ft 8 kts 360°
2026-04-26 11:54 29.29671 90.89201 11485 ft 8 kts 357°
2026-04-26 11:54 29.29731 90.89199 11487 ft 9 kts 360°
2026-04-26 11:54 29.29776 90.89222 11485 ft 7 kts 65°
2026-04-26 11:55 29.29778 90.89253 11486 ft 0 kts 90°
2026-04-26 11:55 29.29778 90.89265 11483 ft 5 kts 90°
2026-04-26 11:55 29.29782 90.89513 11494 ft 59 kts 89°
2026-04-26 11:55 29.29792 90.90180 11483 ft 108 kts 89°
2026-04-26 11:56 29.29807 90.91205 11490 ft 149 kts 88°
2026-04-26 11:56 29.29828 90.92525 11488 ft 182 kts 89°
2026-04-26 11:56 29.29857 90.94045 11662 ft 192 kts 89°
2026-04-26 11:56 29.29871 90.95565 12102 ft 189 kts 89°
2026-04-26 11:57 29.29884 90.97070 12577 ft 190 kts 88°
2026-04-26 11:57 29.29905 90.98580 13052 ft 190 kts 89°
2026-04-26 11:57 29.29977 91.00109 13319 ft 197 kts 81°
2026-04-26 11:57 29.30275 91.01672 13359 ft 205 kts 72°
2026-04-26 11:58 29.30815 91.03186 13558 ft 206 kts 62°
2026-04-26 11:58 29.31433 91.04690 13692 ft 211 kts 71°
2026-04-26 11:58 29.31804 91.06322 13837 ft 213 kts 82°
2026-04-26 11:58 29.31901 91.08031 13944 ft 220 kts 93°
2026-04-26 11:59 29.31696 91.09814 14023 ft 232 kts 105°
2026-04-26 11:59 29.31240 91.11643 14103 ft 246 kts 105°
2026-04-26 11:59 29.30818 91.13613 14221 ft 264 kts 102°
2026-04-26 11:59 29.30471 91.15751 14528 ft 282 kts 99°
2026-04-26 12:00 29.30221 91.18043 14872 ft 299 kts 95°
2026-04-26 12:00 29.30047 91.20486 15227 ft 316 kts 95°
2026-04-26 12:00 29.29861 91.23064 15596 ft 334 kts 95°
2026-04-26 12:00 29.29661 91.25780 15965 ft 351 kts 96°
2026-04-26 12:01 29.29446 91.28634 16310 ft 368 kts 96°
2026-04-26 12:01 29.29219 91.31623 16637 ft 386 kts 96°
2026-04-26 12:01 29.29057 91.33675 16850 ft 397 kts 96°
2026-04-26 12:01 29.28799 91.36869 17006 ft 409 kts 96°
2026-04-26 12:02 29.28529 91.40149 17235 ft 418 kts 96°
2026-04-26 12:02 29.28252 91.43484 17659 ft 422 kts 96°
2026-04-26 12:02 29.27974 91.46833 18121 ft 424 kts 97°
2026-04-26 12:02 29.27695 91.50208 18532 ft 427 kts 97°
2026-04-26 12:03 29.27417 91.53601 18957 ft 429 kts 97°
2026-04-26 12:03 29.27135 91.57015 19365 ft 431 kts 97°
2026-04-26 12:03 29.26758 91.61557 19906 ft 434 kts 97°
2026-04-26 12:03 29.26563 91.63886 20174 ft 435 kts 97°
2026-04-26 12:04 29.26274 91.67341 20565 ft 438 kts 97°
2026-04-26 12:04 29.25982 91.70821 20944 ft 440 kts 97°
2026-04-26 12:04 29.25688 91.74313 21312 ft 442 kts 97°
2026-04-26 12:04 29.25411 91.77829 21665 ft 445 kts 95°
2026-04-26 12:05 29.25236 91.81377 22000 ft 448 kts 93°
2026-04-26 12:05 29.25150 91.84947 22321 ft 450 kts 92°
2026-04-26 12:05 29.25110 91.88544 22631 ft 453 kts 92°
2026-04-26 12:05 29.25077 91.92165 22928 ft 456 kts 92°
2026-04-26 12:06 29.25030 91.95800 23194 ft 457 kts 92°
2026-04-26 12:06 29.24962 91.99453 23439 ft 460 kts 93°
2026-04-26 12:06 29.24873 92.03121 23684 ft 462 kts 93°
2026-04-26 12:06 29.24768 92.06807 23926 ft 465 kts 93°
2026-04-26 12:07 29.24658 92.10512 24160 ft 466 kts 93°
2026-04-26 12:07 29.24549 92.14233 24397 ft 468 kts 93°
2026-04-26 12:07 29.24443 92.17960 24644 ft 470 kts 93°
2026-04-26 12:07 29.24339 92.21706 24888 ft 471 kts 92°
2026-04-26 12:08 29.24240 92.25463 25136 ft 473 kts 92°
2026-04-26 12:08 29.24147 92.29231 25376 ft 475 kts 92°
2026-04-26 12:08 29.24057 92.32957 25639 ft 476 kts 92°
2026-04-26 12:08 29.23961 92.36753 25887 ft 478 kts 92°
2026-04-26 12:09 29.23856 92.40560 26124 ft 479 kts 92°
2026-04-26 12:09 29.23747 92.44382 26345 ft 481 kts 92°
2026-04-26 12:09 29.23638 92.48212 26551 ft 482 kts 92°
2026-04-26 12:09 29.23531 92.52052 26773 ft 484 kts 91°
2026-04-26 12:10 29.23737 92.55903 27018 ft 486 kts 82°
2026-04-26 12:10 29.24468 92.59683 27244 ft 487 kts 72°
2026-04-26 12:10 29.25710 92.63294 27475 ft 488 kts 63°
2026-04-26 12:10 29.27354 92.66699 27687 ft 490 kts 59°
2026-04-26 12:11 29.29049 92.70097 27884 ft 491 kts 59°
2026-04-26 12:11 29.30739 92.73501 28096 ft 492 kts 59°
2026-04-26 12:11 29.32429 92.76917 28304 ft 494 kts 59°
2026-04-26 12:11 29.34123 92.80346 28501 ft 495 kts 59°
2026-04-26 12:12 29.35821 92.83783 28663 ft 496 kts 59°
2026-04-26 12:12 29.37526 92.87232 28849 ft 497 kts 59°
2026-04-26 12:12 29.39232 92.90683 29016 ft 498 kts 59°
2026-04-26 12:12 29.40362 92.92971 29117 ft 499 kts 59°
2026-04-26 12:13 29.42649 92.97602 29316 ft 500 kts 59°
2026-04-26 12:13 29.44362 93.01076 29508 ft 499 kts 59°
2026-04-26 12:13 29.46034 93.04478 30414 ft 481 kts 59°
2026-04-26 12:13 29.47654 93.07786 31209 ft 470 kts 59°
2026-04-26 12:14 29.49247 93.11041 31708 ft 467 kts 59°
2026-04-26 12:14 29.50838 93.14283 32082 ft 465 kts 59°
2026-04-26 12:14 29.52426 93.17516 32426 ft 465 kts 59°
2026-04-26 12:14 29.54010 93.20752 32751 ft 464 kts 59°
2026-04-26 12:15 29.55591 93.23985 33070 ft 464 kts 59°
2026-04-26 12:15 29.57169 93.27216 33386 ft 464 kts 59°
2026-04-26 12:15 29.58748 93.30446 33713 ft 464 kts 59°
2026-04-26 12:15 29.60324 93.33674 34003 ft 463 kts 59°
2026-04-26 12:16 29.61902 93.36905 34262 ft 463 kts 59°
2026-04-26 12:16 29.63473 93.40137 34496 ft 464 kts 59°
2026-04-26 12:16 29.65026 93.43336 34733 ft 464 kts 59°
2026-04-26 12:16 29.66621 93.46622 34873 ft 465 kts 59°
2026-04-26 12:17 29.68178 93.49821 34916 ft 465 kts 59°
2026-04-26 12:17 29.71330 93.56309 34899 ft 464 kts 59°
2026-04-26 12:18 29.74468 93.62800 34897 ft 465 kts 59°
2026-04-26 12:18 29.77615 93.69303 34890 ft 464 kts 58°
2026-04-26 12:19 29.80758 93.75786 34886 ft 463 kts 59°
2026-04-26 12:19 29.83890 93.82281 34888 ft 464 kts 58°
2026-04-26 12:20 29.87019 93.88792 34892 ft 464 kts 58°
2026-04-26 12:20 29.89764 93.95527 34896 ft 468 kts 71°
2026-04-26 12:21 29.91286 94.02818 34905 ft 469 kts 75°
2026-04-26 12:21 29.92740 94.10155 34921 ft 469 kts 75°
2026-04-26 12:22 29.94199 94.17495 34926 ft 469 kts 75°
2026-04-26 12:22 29.95652 94.24841 34937 ft 470 kts 75°
2026-04-26 12:23 29.97098 94.32202 34947 ft 471 kts 75°
2026-04-26 12:23 29.98529 94.39565 34952 ft 470 kts 75°
2026-04-26 12:24 29.99966 94.46934 34957 ft 471 kts 76°
2026-04-26 12:24 30.01403 94.54294 34959 ft 470 kts 75°
2026-04-26 12:25 30.03544 94.65358 34956 ft 472 kts 75°
2026-04-26 12:25 30.04966 94.72740 34960 ft 471 kts 75°
2026-04-26 12:26 30.06379 94.80074 34955 ft 471 kts 75°
2026-04-26 12:26 30.07793 94.87460 34959 ft 471 kts 75°
2026-04-26 12:27 30.09205 94.94852 34965 ft 471 kts 75°
2026-04-26 12:27 30.10626 95.02234 34969 ft 472 kts 74°
2026-04-26 12:28 30.12091 95.09609 34974 ft 471 kts 74°
2026-04-26 12:28 30.13572 95.16988 34983 ft 470 kts 74°
2026-04-26 12:29 30.15042 95.24346 34992 ft 470 kts 74°
2026-04-26 12:30 30.17215 95.35385 35004 ft 468 kts 75°
2026-04-26 12:30 30.18647 95.42713 35016 ft 468 kts 74°
2026-04-26 12:31 30.20800 95.53718 35026 ft 468 kts 75°
2026-04-26 12:31 30.22226 95.61047 35033 ft 467 kts 74°
2026-04-26 12:32 30.23651 95.68382 35022 ft 467 kts 74°
2026-04-26 12:33 30.25762 95.79317 35032 ft 466 kts 74°
2026-04-26 12:33 30.27185 95.86691 35032 ft 466 kts 74°
2026-04-26 12:34 30.28579 95.93965 35023 ft 466 kts 74°
2026-04-26 12:34 30.29984 96.01329 35015 ft 466 kts 74°
2026-04-26 12:35 30.31414 96.08578 34995 ft 464 kts 73°
2026-04-26 12:35 30.32905 96.15896 34975 ft 463 kts 73°
2026-04-26 12:36 30.34367 96.23091 34953 ft 462 kts 74°
2026-04-26 12:36 30.35808 96.30340 34942 ft 462 kts 74°
2026-04-26 12:37 30.37236 96.37591 34921 ft 461 kts 74°
2026-04-26 12:37 30.38663 96.44825 34910 ft 461 kts 74°
2026-04-26 12:38 30.40096 96.52077 34881 ft 462 kts 74°
2026-04-26 12:38 30.41522 96.59311 34867 ft 460 kts 75°
2026-04-26 12:39 30.42938 96.66541 34867 ft 460 kts 75°
2026-04-26 12:39 30.44352 96.73764 34856 ft 459 kts 75°
2026-04-26 12:40 30.45763 96.80986 34850 ft 459 kts 75°
2026-04-26 12:40 30.47168 96.88213 34837 ft 459 kts 75°
2026-04-26 12:41 30.48562 96.95430 34830 ft 459 kts 75°
2026-04-26 12:41 30.49954 97.02654 34827 ft 459 kts 75°
2026-04-26 12:42 30.51347 97.09887 34808 ft 459 kts 75°
2026-04-26 12:42 30.51899 97.17269 34797 ft 463 kts 92°
2026-04-26 12:43 30.51279 97.24719 34782 ft 464 kts 94°
2026-04-26 12:43 30.50678 97.32162 34779 ft 463 kts 94°
2026-04-26 12:44 30.50075 97.39598 34777 ft 463 kts 94°
2026-04-26 12:44 30.49462 97.47029 34769 ft 463 kts 94°
2026-04-26 12:45 30.48834 97.54468 34768 ft 463 kts 94°
2026-04-26 12:45 30.48210 97.61888 34774 ft 463 kts 94°
2026-04-26 12:46 30.47582 97.69316 34783 ft 463 kts 94°
2026-04-26 12:46 30.46944 97.76733 34788 ft 463 kts 95°
2026-04-26 12:47 30.46290 97.84147 34792 ft 462 kts 95°
2026-04-26 12:47 30.45641 97.91561 34797 ft 462 kts 95°
2026-04-26 12:48 30.44994 97.98973 34803 ft 462 kts 95°
2026-04-26 12:48 30.44345 98.06389 34808 ft 462 kts 95°
2026-04-26 12:49 30.43801 98.12542 34809 ft 462 kts 95°
2026-04-26 12:49 30.43138 98.19942 34809 ft 462 kts 95°
2026-04-26 12:50 30.42531 98.27346 34814 ft 461 kts 94°
2026-04-26 12:50 30.41981 98.34750 34808 ft 461 kts 94°
2026-04-26 12:51 30.41429 98.42153 34817 ft 461 kts 94°
2026-04-26 12:51 30.40851 98.49543 34821 ft 461 kts 95°
2026-04-26 12:52 30.40252 98.56947 34807 ft 461 kts 95°
2026-04-26 12:52 30.39658 98.64329 34815 ft 461 kts 95°
2026-04-26 12:53 30.39068 98.71710 34808 ft 460 kts 95°
2026-04-26 12:53 30.38462 98.79080 34801 ft 460 kts 95°
2026-04-26 12:54 30.37857 98.86452 34804 ft 460 kts 95°
2026-04-26 12:54 30.37259 98.93815 34806 ft 459 kts 95°
2026-04-26 12:55 30.36662 99.01186 34796 ft 460 kts 95°
2026-04-26 12:55 30.36050 99.08551 34805 ft 460 kts 95°
2026-04-26 12:56 30.35419 99.15919 34808 ft 460 kts 95°
2026-04-26 12:56 30.34790 99.23297 34817 ft 460 kts 95°
2026-04-26 12:57 30.34169 99.30616 34825 ft 460 kts 95°
2026-04-26 12:57 30.33544 99.37982 34833 ft 460 kts 95°
2026-04-26 12:58 30.32589 99.49033 34841 ft 460 kts 95°
2026-04-26 12:58 30.31945 99.56391 34848 ft 460 kts 95°
2026-04-26 12:59 30.31300 99.63745 34849 ft 459 kts 95°
2026-04-26 12:59 30.30651 99.71101 34849 ft 459 kts 95°
2026-04-26 13:00 30.29998 99.78444 34846 ft 459 kts 95°
2026-04-26 13:00 30.29341 99.85794 34844 ft 459 kts 95°
2026-04-26 13:01 30.28684 99.93130 34838 ft 459 kts 95°
2026-04-26 13:01 30.28019 100.00469 34839 ft 458 kts 95°
2026-04-26 13:02 30.27431 100.07812 34833 ft 458 kts 93°
2026-04-26 13:02 30.26921 100.15162 34817 ft 458 kts 93°
2026-04-26 13:03 30.26392 100.22494 34813 ft 458 kts 94°
2026-04-26 13:03 30.25836 100.29836 34809 ft 458 kts 94°
2026-04-26 13:04 30.25275 100.37182 34803 ft 458 kts 94°
2026-04-26 13:04 30.24708 100.44530 34798 ft 459 kts 94°
2026-04-26 13:05 30.24143 100.51870 34792 ft 459 kts 94°
2026-04-26 13:05 30.23576 100.59218 34789 ft 458 kts 94°
2026-04-26 13:06 30.23002 100.66547 34787 ft 458 kts 94°
2026-04-26 13:06 30.22418 100.73869 34785 ft 457 kts 94°
2026-04-26 13:07 30.21835 100.81180 34783 ft 456 kts 94°
2026-04-26 13:07 30.21248 100.88494 34790 ft 457 kts 94°
2026-04-26 13:08 30.20655 100.95807 34801 ft 457 kts 95°
2026-04-26 13:08 30.20051 101.03132 34816 ft 458 kts 95°
2026-04-26 13:09 30.19450 101.10457 34831 ft 458 kts 95°
2026-04-26 13:09 30.18845 101.17801 34846 ft 459 kts 95°
2026-04-26 13:10 30.18240 101.25104 34861 ft 460 kts 95°
2026-04-26 13:10 30.17621 101.32514 34877 ft 460 kts 95°
2026-04-26 13:11 30.17000 101.39869 34899 ft 460 kts 95°
2026-04-26 13:11 30.16385 101.47176 34914 ft 460 kts 95°
2026-04-26 13:12 30.15756 101.54527 34933 ft 459 kts 95°
2026-04-26 13:12 30.15131 101.61874 34947 ft 459 kts 95°
2026-04-26 13:13 30.14038 101.69118 34959 ft 459 kts 109°
2026-04-26 13:13 30.11225 101.75709 34969 ft 459 kts 126°
2026-04-26 13:14 30.06940 101.81134 34969 ft 458 kts 137°
2026-04-26 13:14 30.02326 101.86210 34981 ft 459 kts 137°
2026-04-26 13:15 29.97713 101.91299 34981 ft 459 kts 137°
2026-04-26 13:15 29.93842 101.95560 34974 ft 459 kts 137°
2026-04-26 13:16 29.88473 102.01456 34972 ft 459 kts 137°
2026-04-26 13:16 29.83838 102.06528 34984 ft 459 kts 137°
2026-04-26 13:17 29.76903 102.14117 34971 ft 459 kts 137°
2026-04-26 13:18 29.69966 102.21698 34955 ft 458 kts 137°
2026-04-26 13:19 29.63041 102.29249 34951 ft 457 kts 137°
2026-04-26 13:19 29.58417 102.34275 34937 ft 457 kts 137°
2026-04-26 13:20 29.53799 102.39291 34929 ft 457 kts 138°
2026-04-26 13:20 29.49178 102.44308 34914 ft 457 kts 138°
2026-04-26 13:21 29.44564 102.49307 34921 ft 457 kts 138°
2026-04-26 13:21 29.39943 102.54311 34918 ft 456 kts 138°
2026-04-26 13:22 29.35318 102.59308 34907 ft 457 kts 138°
2026-04-26 13:22 29.30688 102.64296 34908 ft 457 kts 138°
2026-04-26 13:23 29.26065 102.69283 34914 ft 457 kts 138°
2026-04-26 13:23 29.21436 102.74271 34918 ft 457 kts 138°
2026-04-26 13:24 29.16813 102.79247 34913 ft 457 kts 139°
2026-04-26 13:24 29.12201 102.84190 34920 ft 457 kts 139°
2026-04-26 13:25 29.07532 102.89195 34914 ft 457 kts 139°
2026-04-26 13:25 29.02924 102.94135 34919 ft 457 kts 139°
2026-04-26 13:26 28.98278 102.99106 34920 ft 457 kts 139°
2026-04-26 13:26 28.93630 103.04069 34925 ft 457 kts 139°
2026-04-26 13:27 28.88987 103.09022 34941 ft 457 kts 139°
2026-04-26 13:27 28.84347 103.13968 34940 ft 457 kts 139°
2026-04-26 13:28 28.79701 103.18913 34939 ft 456 kts 139°
2026-04-26 13:28 28.75066 103.23839 34936 ft 456 kts 139°
2026-04-26 13:29 28.70431 103.28759 34934 ft 455 kts 139°
2026-04-26 13:29 28.65793 103.33675 34923 ft 455 kts 139°
2026-04-26 13:30 28.61150 103.38588 34927 ft 456 kts 139°
2026-04-26 13:30 28.56502 103.43496 34924 ft 456 kts 139°
2026-04-26 13:31 28.51856 103.48408 34916 ft 456 kts 139°
2026-04-26 13:31 28.47234 103.53285 34908 ft 456 kts 139°
2026-04-26 13:32 28.42587 103.58172 34903 ft 456 kts 139°
2026-04-26 13:32 28.37922 103.63080 34900 ft 456 kts 139°
2026-04-26 13:33 28.33261 103.67977 34894 ft 457 kts 139°
2026-04-26 13:33 28.28602 103.72870 34891 ft 456 kts 139°
2026-04-26 13:34 28.23937 103.77766 34890 ft 456 kts 139°
2026-04-26 13:34 28.19278 103.82642 34888 ft 456 kts 139°
2026-04-26 13:35 28.14615 103.87514 34886 ft 456 kts 139°
2026-04-26 13:35 28.10734 103.91570 34888 ft 456 kts 139°
2026-04-26 13:36 28.06065 103.96444 34882 ft 457 kts 139°
2026-04-26 13:36 28.01394 104.01318 34883 ft 457 kts 139°
2026-04-26 13:37 27.96716 104.06184 34887 ft 457 kts 139°
2026-04-26 13:37 27.92035 104.11040 34884 ft 457 kts 139°
2026-04-26 13:38 27.87352 104.15899 34890 ft 457 kts 139°
2026-04-26 13:38 27.82662 104.20762 34899 ft 457 kts 139°
2026-04-26 13:39 27.77980 104.25611 34897 ft 457 kts 139°
2026-04-26 13:39 27.73289 104.30462 34905 ft 457 kts 139°
2026-04-26 13:40 27.68599 104.35306 34912 ft 457 kts 139°
2026-04-26 13:40 27.63904 104.40150 34914 ft 457 kts 139°
2026-04-26 13:41 27.59213 104.44980 34920 ft 457 kts 139°
2026-04-26 13:41 27.54520 104.49808 34926 ft 456 kts 139°
2026-04-26 13:42 27.49837 104.54629 34929 ft 456 kts 139°
2026-04-26 13:42 27.45142 104.59444 34933 ft 457 kts 139°
2026-04-26 13:43 27.40450 104.64256 34929 ft 457 kts 139°
2026-04-26 13:43 27.35754 104.69080 34928 ft 457 kts 139°
2026-04-26 13:44 27.31048 104.73894 34925 ft 457 kts 139°
2026-04-26 13:44 27.26343 104.78702 34919 ft 458 kts 139°
2026-04-26 13:45 27.21631 104.83517 34909 ft 458 kts 139°
2026-04-26 13:45 27.16904 104.88327 34906 ft 458 kts 139°
2026-04-26 13:46 27.12206 104.93105 34903 ft 459 kts 139°
2026-04-26 13:46 27.07474 104.97912 34904 ft 459 kts 139°
2026-04-26 13:47 27.02741 105.02730 34898 ft 460 kts 139°
2026-04-26 13:47 26.98003 105.07544 34897 ft 460 kts 139°
2026-04-26 13:48 26.93240 105.12359 34897 ft 461 kts 139°
2026-04-26 13:48 26.88478 105.17170 34899 ft 461 kts 139°
2026-04-26 13:49 26.83713 105.21999 34899 ft 462 kts 139°
2026-04-26 13:49 26.78942 105.26825 34902 ft 462 kts 140°
2026-04-26 13:50 26.74166 105.31641 34905 ft 463 kts 140°
2026-04-26 13:50 26.69371 105.36462 34912 ft 463 kts 140°
2026-04-26 13:51 26.64594 105.41265 34915 ft 463 kts 140°
2026-04-26 13:51 26.59802 105.46081 34914 ft 463 kts 140°
2026-04-26 13:52 26.55001 105.50893 34917 ft 463 kts 140°
2026-04-26 13:52 26.50213 105.55698 34920 ft 464 kts 140°
2026-04-26 13:53 26.45410 105.60515 34921 ft 464 kts 140°
2026-04-26 13:53 26.40603 105.65326 34922 ft 465 kts 140°
2026-04-26 13:54 26.35788 105.70135 34926 ft 465 kts 140°
2026-04-26 13:54 26.30960 105.74937 34928 ft 466 kts 140°
2026-04-26 13:55 26.24522 105.81358 34929 ft 467 kts 140°
2026-04-26 13:56 26.16435 105.89413 34928 ft 468 kts 140°
2026-04-26 13:56 26.11583 105.94234 34931 ft 468 kts 141°
2026-04-26 13:57 26.06715 105.99056 34933 ft 469 kts 141°
2026-04-26 13:57 26.01846 106.03879 34932 ft 470 kts 141°
2026-04-26 13:58 25.96959 106.08711 34940 ft 470 kts 141°
2026-04-26 13:58 25.92081 106.13545 34938 ft 471 kts 141°
2026-04-26 13:59 25.87222 106.18345 34937 ft 471 kts 141°
2026-04-26 13:59 25.82329 106.23170 34941 ft 471 kts 141°
2026-04-26 14:00 25.72523 106.32837 34935 ft 472 kts 141°
2026-04-26 14:01 25.67614 106.37653 34930 ft 472 kts 141°
2026-04-26 14:01 25.62681 106.42496 34932 ft 473 kts 141°
2026-04-26 14:02 25.57748 106.47329 34934 ft 473 kts 141°
2026-04-26 14:02 25.52812 106.52164 34927 ft 474 kts 141°
2026-04-26 14:03 25.47881 106.56997 34925 ft 474 kts 141°
2026-04-26 14:03 25.42937 106.61829 34924 ft 474 kts 141°
2026-04-26 14:04 25.37989 106.66656 34921 ft 474 kts 141°
2026-04-26 14:04 25.33034 106.71479 34921 ft 474 kts 141°
2026-04-26 14:05 25.28084 106.76305 34916 ft 475 kts 141°
2026-04-26 14:05 25.23136 106.81132 34919 ft 475 kts 141°
2026-04-26 14:06 25.18179 106.85953 34917 ft 475 kts 141°
2026-04-26 14:06 25.13211 106.90775 34922 ft 476 kts 141°
2026-04-26 14:07 25.08237 106.95592 34919 ft 476 kts 141°
2026-04-26 14:07 25.03260 107.00418 34922 ft 477 kts 141°
2026-04-26 14:08 24.98273 107.05245 34924 ft 478 kts 141°
2026-04-26 14:08 24.93271 107.10077 34924 ft 478 kts 141°
2026-04-26 14:09 24.88267 107.14908 34928 ft 479 kts 142°
2026-04-26 14:09 24.83245 107.19742 34928 ft 480 kts 142°
2026-04-26 14:10 24.78227 107.24573 34931 ft 480 kts 142°
2026-04-26 14:10 24.73193 107.29414 34932 ft 481 kts 142°
2026-04-26 14:11 24.65637 107.36683 34927 ft 481 kts 142°
2026-04-26 14:11 24.60590 107.41527 34927 ft 481 kts 142°
2026-04-26 14:12 24.55544 107.46366 34924 ft 482 kts 142°
2026-04-26 14:12 24.50499 107.51204 34923 ft 482 kts 142°
2026-04-26 14:13 24.42905 107.58454 34929 ft 482 kts 143°
2026-04-26 14:14 24.37875 107.63254 34925 ft 483 kts 143°
2026-04-26 14:14 24.32808 107.68085 34928 ft 483 kts 143°
2026-04-26 14:15 24.27739 107.72912 34928 ft 483 kts 143°
2026-04-26 14:15 24.22666 107.77737 34928 ft 483 kts 143°
2026-04-26 14:16 24.17588 107.82562 34930 ft 484 kts 143°
2026-04-26 14:16 24.12499 107.87393 34933 ft 484 kts 143°
2026-04-26 14:17 24.07404 107.92227 34934 ft 485 kts 144°
2026-04-26 14:17 24.02307 107.97060 34935 ft 485 kts 144°
2026-04-26 14:18 23.97213 108.01883 34933 ft 486 kts 144°
2026-04-26 14:18 23.92090 108.06726 34937 ft 486 kts 144°
2026-04-26 14:19 23.87036 108.11650 34923 ft 490 kts 136°
2026-04-26 14:19 23.83241 108.17888 34936 ft 500 kts 115°
2026-04-26 14:19 23.82126 108.21440 34935 ft 503 kts 104°
2026-04-26 14:20 23.81576 108.25212 34934 ft 504 kts 94°
2026-04-26 14:20 23.81169 108.32868 34924 ft 505 kts 94°
2026-04-26 14:21 23.80734 108.40513 34926 ft 505 kts 94°
2026-04-26 14:21 23.80288 108.48158 34931 ft 505 kts 94°
2026-04-26 14:22 23.79916 108.54568 34929 ft 504 kts 94°
2026-04-26 14:22 23.79480 108.62203 34927 ft 504 kts 94°
2026-04-26 14:23 23.79041 108.69787 34929 ft 504 kts 94°
2026-04-26 14:23 23.78591 108.77415 34925 ft 503 kts 94°
2026-04-26 14:24 23.78136 108.85048 34924 ft 504 kts 94°
2026-04-26 14:24 23.77682 108.92680 34922 ft 504 kts 94°
2026-04-26 14:25 23.77225 109.00305 34920 ft 503 kts 94°
2026-04-26 14:25 23.76754 109.07932 34920 ft 504 kts 94°
2026-04-26 14:26 23.76145 109.15544 34914 ft 502 kts 102°
2026-04-26 14:26 23.74677 109.22980 34917 ft 501 kts 104°
2026-04-26 14:27 23.73178 109.30414 34920 ft 502 kts 104°
2026-04-26 14:27 23.71672 109.37853 34916 ft 502 kts 104°
2026-04-26 14:28 23.70165 109.45285 34921 ft 502 kts 104°
2026-04-26 14:28 23.68652 109.52722 34926 ft 502 kts 104°
2026-04-26 14:29 23.67140 109.60162 34927 ft 502 kts 104°
2026-04-26 14:29 23.65624 109.67597 34933 ft 502 kts 104°
2026-04-26 14:30 23.64093 109.75025 34932 ft 502 kts 104°
2026-04-26 14:30 23.62553 109.82447 34938 ft 502 kts 104°
2026-04-26 14:31 23.61016 109.89869 34938 ft 502 kts 104°
2026-04-26 14:31 23.59473 109.97281 34942 ft 501 kts 104°
2026-04-26 14:32 23.57926 110.04682 34940 ft 500 kts 104°
2026-04-26 14:32 23.56395 110.12035 34944 ft 501 kts 104°
2026-04-26 14:33 23.54846 110.19434 34941 ft 501 kts 104°
2026-04-26 14:33 23.53297 110.26833 34947 ft 501 kts 104°
2026-04-26 14:34 23.51745 110.34219 34939 ft 500 kts 104°
2026-04-26 14:34 23.50199 110.41608 34943 ft 500 kts 104°
2026-04-26 14:35 23.48704 110.49016 34942 ft 501 kts 103°
2026-04-26 14:35 23.47217 110.56424 34941 ft 501 kts 104°
2026-04-26 14:36 23.45709 110.63832 34940 ft 501 kts 104°
2026-04-26 14:36 23.44185 110.71232 34942 ft 501 kts 104°
2026-04-26 14:37 23.42644 110.78625 34945 ft 501 kts 104°
2026-04-26 14:37 23.41072 110.86016 34944 ft 501 kts 104°
2026-04-26 14:38 23.39501 110.93404 34942 ft 501 kts 104°
2026-04-26 14:38 23.37942 111.00791 34943 ft 501 kts 104°
2026-04-26 14:39 23.36374 111.08174 34945 ft 500 kts 104°
2026-04-26 14:39 23.34805 111.15541 34945 ft 500 kts 104°
2026-04-26 14:40 23.33274 111.22927 34946 ft 500 kts 103°
2026-04-26 14:40 23.31785 111.30305 34946 ft 499 kts 103°
2026-04-26 14:41 23.30291 111.37668 34951 ft 499 kts 103°
2026-04-26 14:41 23.28773 111.45040 34951 ft 498 kts 103°
2026-04-26 14:42 23.27254 111.52386 34956 ft 499 kts 103°
2026-04-26 14:42 23.25719 111.59743 34957 ft 498 kts 104°
2026-04-26 14:43 23.24157 111.67081 34957 ft 498 kts 104°
2026-04-26 14:43 23.22592 111.74413 34961 ft 498 kts 104°
2026-04-26 14:44 23.21032 111.81755 34966 ft 498 kts 103°
2026-04-26 14:44 23.19494 111.89086 34964 ft 498 kts 103°
2026-04-26 14:45 23.17974 111.96427 34968 ft 498 kts 103°
2026-04-26 14:45 23.16467 112.03714 34968 ft 497 kts 104°
2026-04-26 14:46 23.14935 112.11035 34970 ft 497 kts 103°
2026-04-26 14:46 23.13400 112.18354 34973 ft 497 kts 103°
2026-04-26 14:46 23.12635 112.22014 34783 ft 497 kts 103°
2026-04-26 14:47 23.11861 112.25706 33944 ft 506 kts 103°
2026-04-26 14:47 23.11070 112.29458 32823 ft 512 kts 103°
2026-04-26 14:47 23.10273 112.33227 31786 ft 515 kts 104°
2026-04-26 14:47 23.09467 112.37029 30742 ft 517 kts 104°
2026-04-26 14:48 23.08659 112.40842 29704 ft 518 kts 104°
2026-04-26 14:48 23.07859 112.44622 28923 ft 511 kts 104°
2026-04-26 14:48 23.07180 112.48375 28334 ft 503 kts 98°
2026-04-26 14:48 23.06992 112.52138 27755 ft 496 kts 90°
2026-04-26 14:49 23.07000 112.55852 27164 ft 488 kts 90°
2026-04-26 14:49 23.07006 112.59523 26581 ft 482 kts 91°
2026-04-26 14:49 23.07009 112.63129 26154 ft 475 kts 91°
2026-04-26 14:49 23.07004 112.66706 25708 ft 472 kts 91°
2026-04-26 14:50 23.06994 112.70248 25266 ft 468 kts 91°
2026-04-26 14:50 23.06983 112.73782 24860 ft 466 kts 91°
2026-04-26 14:50 23.06962 112.77309 23966 ft 470 kts 92°
2026-04-26 14:50 23.06932 112.80827 23489 ft 462 kts 92°
2026-04-26 14:51 23.06900 112.84290 22874 ft 456 kts 92°
2026-04-26 14:51 23.06870 112.87714 22253 ft 451 kts 91°
2026-04-26 14:51 23.06841 112.91083 21622 ft 446 kts 91°
2026-04-26 14:51 23.06812 112.94426 20799 ft 435 kts 91°
2026-04-26 14:52 23.06783 112.97652 20087 ft 423 kts 91°
2026-04-26 14:52 23.06754 113.00807 19392 ft 411 kts 91°
2026-04-26 14:52 23.06898 113.03858 18717 ft 400 kts 80°
2026-04-26 14:52 23.07688 113.06692 18195 ft 385 kts 65°
2026-04-26 14:53 23.09031 113.09135 17654 ft 369 kts 50°
2026-04-26 14:53 23.10794 113.11079 17126 ft 355 kts 36°
2026-04-26 14:53 23.12786 113.12452 16626 ft 349 kts 24°
2026-04-26 14:53 23.15065 113.13342 16118 ft 348 kts 11°
2026-04-26 14:54 23.17443 113.13841 15606 ft 348 kts
2026-04-26 14:54 23.19813 113.14329 15112 ft 349 kts
2026-04-26 14:54 23.22201 113.14829 14620 ft 350 kts
2026-04-26 14:54 23.24593 113.15333 14138 ft 351 kts
2026-04-26 14:55 23.26991 113.15841 13659 ft 351 kts
2026-04-26 14:55 23.29379 113.16348 13180 ft 349 kts 10°
2026-04-26 14:55 23.31765 113.16857 12696 ft 348 kts 10°
2026-04-26 14:55 23.34123 113.17357 12223 ft 341 kts 10°
2026-04-26 14:56 23.36380 113.17834 11772 ft 328 kts 10°
2026-04-26 14:56 23.38582 113.18300 11365 ft 315 kts 10°
2026-04-26 14:56 23.40690 113.18745 10994 ft 303 kts 10°
2026-04-26 14:56 23.42745 113.19179 10585 ft 302 kts 10°
2026-04-26 14:57 23.44819 113.19617 10164 ft 304 kts 10°
2026-04-26 14:57 23.46896 113.20053 9812 ft 304 kts 10°
2026-04-26 14:57 23.48973 113.20481 9452 ft 302 kts 10°
2026-04-26 14:57 23.51032 113.20902 9104 ft 301 kts 10°
2026-04-26 14:58 23.53085 113.21324 8753 ft 299 kts 10°
2026-04-26 14:58 23.55124 113.21743 8408 ft 297 kts 10°
2026-04-26 14:58 23.57138 113.22158 8055 ft 290 kts 10°
2026-04-26 14:58 23.59081 113.22559 7736 ft 278 kts 10°
2026-04-26 14:59 23.60939 113.22944 7394 ft 267 kts 10°
2026-04-26 14:59 23.62729 113.23315 7062 ft 257 kts 10°
2026-04-26 14:59 23.64472 113.23676 6747 ft 254 kts
2026-04-26 14:59 23.65621 113.23912 6525 ft 254 kts
2026-04-26 15:00 23.67908 113.24420 6242 ft 247 kts 17°
2026-04-26 15:00 23.69384 113.25299 6076 ft 239 kts 42°
2026-04-26 15:00 23.70345 113.26710 5928 ft 230 kts 68°
2026-04-26 15:00 23.70676 113.28401 5809 ft 228 kts 93°
2026-04-26 15:01 23.70431 113.30106 5694 ft 228 kts 103°
2026-04-26 15:01 23.70117 113.31773 5568 ft 219 kts 103°
2026-04-26 15:01 23.69827 113.33371 5423 ft 212 kts 103°
2026-04-26 15:01 23.69507 113.34930 5210 ft 209 kts 112°
2026-04-26 15:02 23.68816 113.36303 5036 ft 204 kts 131°
2026-04-26 15:02 23.67785 113.37311 4817 ft 196 kts 150°
2026-04-26 15:02 23.66550 113.37877 4592 ft 192 kts 169°
2026-04-26 15:02 23.65231 113.37976 4403 ft 187 kts 187°
2026-04-26 15:03 23.63986 113.37684 4251 ft 184 kts 195°
2026-04-26 15:03 23.62734 113.37344 4130 ft 183 kts 194°
2026-04-26 15:03 23.61537 113.37020 4046 ft 175 kts 194°
2026-04-26 15:03 23.60357 113.36700 3863 ft 174 kts 194°
2026-04-26 15:04 23.59191 113.36384 3652 ft 167 kts 193°
2026-04-26 15:04 23.58069 113.36080 3448 ft 164 kts 193°
2026-04-26 15:04 23.56998 113.35790 3248 ft 155 kts 193°
2026-04-26 15:04 23.55994 113.35518 3056 ft 147 kts 192°
2026-04-26 15:05 23.55060 113.35265 2872 ft 138 kts 192°
2026-04-26 15:05 23.54734 113.35177 2815 ft 138 kts 192°
2026-04-26 15:05 23.53190 113.34759 2511 ft 137 kts 192°
2026-04-26 15:05 23.52266 113.34509 2341 ft 136 kts 192°
2026-04-26 15:06 23.51351 113.34261 2160 ft 135 kts 192°
2026-04-26 15:06 23.50430 113.34012 1979 ft 134 kts 191°
2026-04-26 15:06 23.49519 113.33768 1798 ft 135 kts 192°
2026-04-26 15:06 23.48917 113.33606 1637 ft 134 kts 192°
2026-04-26 15:07 23.46831 113.33034 1178 ft 133 kts 193°
2026-04-26 15:07 23.45926 113.32795 988 ft 134 kts 193°
2026-04-26 15:07 23.45012 113.32545 796 ft 136 kts 193°
2026-04-26 15:08 23.44097 113.32300 621 ft 137 kts 192°
2026-04-26 15:08 23.43468 113.32134 479 ft 139 kts 194°
2026-04-26 15:08 23.42531 113.31870 336 ft 139 kts 192°
2026-04-26 15:08 23.41589 113.31618 206 ft 140 kts 193°
2026-04-26 15:09 23.40647 113.31365 89 ft 139 kts 193°
2026-04-26 15:09 23.39768 113.31129 54 ft 121 kts 194°
2026-04-26 15:09 23.39065 113.30938 58 ft 76 kts 195°
2026-04-26 15:09 23.38661 113.30828 59 ft 39 kts 195°
2026-04-26 15:10 23.38465 113.30776 56 ft 28 kts 195°
2026-04-26 15:10 23.38359 113.30734 56 ft 21 kts 211°
2026-04-26 15:10 23.38257 113.30649 58 ft 10 kts 221°
2026-04-26 15:10 23.38212 113.30606 58 ft 10 kts 221°
2026-04-26 15:11 23.38197 113.30541 56 ft 10 kts 298°
2026-04-26 15:11 23.38255 113.30518 56 ft 8 kts 10°
2026-04-26 15:11 23.38308 113.30533 54 ft 9 kts 14°
2026-04-26 15:11 23.38375 113.30551 51 ft 8 kts 14°
2026-04-26 15:12 23.38438 113.30568 54 ft 11 kts 14°
2026-04-26 15:12 23.38503 113.30580 54 ft 9 kts 352°
2026-04-26 15:12 23.38535 113.30527 53 ft 9 kts 286°
2026-04-26 15:12 23.38557 113.30450 58 ft 12 kts 283°
2026-04-26 15:13 23.38613 113.30412 55 ft 11 kts 13°
2026-04-26 15:13 23.38682 113.30432 54 ft 10 kts 14°
2026-04-26 15:13 23.38751 113.30451 57 ft 11 kts 14°
2026-04-26 15:13 23.38819 113.30470 54 ft 10 kts 14°
2026-04-26 15:14 23.38873 113.30433 56 ft 11 kts 294°
2026-04-26 15:14 23.38903 113.30366 54 ft 9 kts 296°
2026-04-26 15:14 23.38926 113.30311 56 ft 8 kts 280°
2026-04-26 15:14 23.38893 113.30269 59 ft 6 kts 207°
2026-04-26 15:15 23.38874 113.30258 59 ft 1 kts 207°
2026-04-26 15:15 23.38867 113.30254 59 ft 0 kts 207°
2026-04-26 15:15 23.38863 113.30252 51 ft 0 kts 207°